SKYSAT-B

Last updated on Fri Nov 07 2025 00:02:32 GMT+0000 (Coordinated Universal Time)

1 40072U 14037D 25310.28823666 .00002596 00000+0 29574-3 0 9991 2 40072 98.3550 252.0873 0004286 287.8200 72.2547 14.87113320612825
UTC large
Height (km)
Speed (km/s)
/
Latitude / Longitude
Inclination (degrees)
Orbital Period (minutes)
Azimuth
Elevation
Range (km)
Doppler Factor

Next 0 passes for location: London (51.5072 / 0.1276)

Sorry there are no passes over London.